"Sample Date","Sample Time","Sample Value","Units","Flow Rate","Sample Interval","Number Channels","Micron Size 0","Counts/Channel 0","Micron Size 1","Counts/Channel 1","Micron Size 2","Counts/Channel 2","Micron Size 3","Counts/Channel 3","Micron Size 4","Counts/Channel 4","Micron Size 5","Counts/Channel 5","Micron Size 6","Counts/Channel 6","Micron Size 7","Counts/Channel 7","Micron Size 8","Counts/Channel 8","Micron Size 9","Counts/Channel 9","Micron Size 10","Counts/Channel 10","Micron Size 11","Counts/Channel 11","Micron Size 12","Counts/Channel 12","Micron Size 13","Counts/Channel 13","Micron Size 14","Counts/Channel 14","Micron Size 15","Counts/Channel 15","Micron Size 16","Counts/Channel 16","Micron Size 17","Counts/Channel 17","Micron Size 18","Counts/Channel 18","Micron Size 19","Counts/Channel 19","Micron Size 20","Counts/Channel 20","Micron Size 21","Counts/Channel 21","Micron Size 22","Counts/Channel 22","Micron Size 23","Counts/Channel 23","Micron Size 24","Counts/Channel 24","Micron Size 25","Counts/Channel 25","Micron Size 26","Counts/Channel 26","Micron Size 27","Counts/Channel 27","Micron Size 28","Counts/Channel 28","Micron Size 29","Counts/Channel 29","Micron Size 30","Counts/Channel 30","Micron Size 31","Counts/Channel 31"
"04/09/08","18:00:01",25213.000,"cc",28260.600,6.00,6,0.100,16573.000,0.200,3159.000,0.300,1823.000,0.500,2372.000,1.000,1284.000,5.000,2.000
"04/09/08","18:00:07",24815.000,"cc",28287.992,6.00,6,0.100,16436.000,0.200,3169.000,0.300,1770.000,0.500,2294.000,1.000,1146.000,5.000,0
"04/09/08","18:00:13",24913.000,"cc",28289.785,6.00,6,0.100,16635.000,0.200,3230.000,0.300,1703.000,0.500,2223.000,1.000,1121.000,5.000,1.000
"04/09/08","18:00:19",25234.000,"cc",28380.498,6.00,6,0.100,16786.000,0.200,3248.000,0.300,1759.000,0.500,2271.000,1.000,1170.000,5.000,0
"04/09/08","18:00:25",24998.000,"cc",28283.441,6.00,6,0.100,16560.000,0.200,3215.000,0.300,1762.000,0.500,2252.000,1.000,1209.000,5.000,0
"04/09/08","18:00:31",25335.000,"cc",28212.857,6.00,6,0.100,16884.000,0.200,3137.000,0.300,1806.000,0.500,2278.000,1.000,1230.000,5.000,0
"04/09/08","18:00:37",25260.000,"cc",28348.287,6.00,6,0.100,16855.000,0.200,3253.000,0.300,1808.000,0.500,2179.000,1.000,1165.000,5.000,0
"04/09/08","18:00:43",24906.000,"cc",28411.334,6.00,6,0.100,16574.000,0.200,3209.000,0.300,1795.000,0.500,2226.000,1.000,1102.000,5.000,0
"04/09/08","18:00:49",25015.000,"cc",28299.320,6.00,6,0.100,16821.000,0.200,3170.000,0.300,1689.000,0.500,2198.000,1.000,1136.000,5.000,1.000
"04/09/08","18:00:55",24944.000,"cc",28277.803,6.00,6,0.100,16746.000,0.200,3110.000,0.300,1709.000,0.500,2225.000,1.000,1154.000,5.000,0
"04/09/08","18:01:01",24562.000,"cc",28400.436,6.00,6,0.100,16406.000,0.200,3099.000,0.300,1661.000,0.500,2255.000,1.000,1139.000,5.000,2.000
"04/09/08","18:01:07",24296.000,"cc",28379.092,6.00,6,0.100,16191.000,0.200,3060.000,0.300,1712.000,0.500,2231.000,1.000,1102.000,5.000,0
"04/09/08","18:01:13",24220.000,"cc",28425.527,6.00,6,0.100,16271.000,0.200,3088.000,0.300,1634.000,0.500,2110.000,1.000,1117.000,5.000,0
"04/09/08","18:01:19",24348.000,"cc",28196.479,6.00,6,0.100,16306.000,0.200,3120.000,0.300,1640.000,0.500,2159.000,1.000,1123.000,5.000,0
"04/09/08","18:01:25",24194.000,"cc",28290.477,6.00,6,0.100,16391.000,0.200,3019.000,0.300,1653.000,0.500,2024.000,1.000,1107.000,5.000,0
"04/09/08","18:01:31",24259.000,"cc",28369.922,6.00,6,0.100,16328.000,0.200,2994.000,0.300,1655.000,0.500,2162.000,1.000,1120.000,5.000,0
"04/09/08","18:01:37",24246.000,"cc",28233.705,6.00,6,0.100,16118.000,0.200,3117.000,0.300,1703.000,0.500,2163.000,1.000,1145.000,5.000,0
"04/09/08","18:01:43",24696.000,"cc",28186.416,6.00,6,0.100,16305.000,0.200,3125.000,0.300,1705.000,0.500,2319.000,1.000,1242.000,5.000,0
"04/09/08","18:01:49",24964.000,"cc",28224.547,6.00,6,0.100,16532.000,0.200,3233.000,0.300,1765.000,0.500,2274.000,1.000,1159.000,5.000,1.000
"04/09/08","18:01:55",24383.000,"cc",28413.984,6.00,6,0.100,16237.000,0.200,3149.000,0.300,1668.000,0.500,2241.000,1.000,1088.000,5.000,0
"04/09/08","18:02:01",24059.000,"cc",28302.861,6.00,6,0.100,16068.000,0.200,3079.000,0.300,1693.000,0.500,2160.000,1.000,1059.000,5.000,0
"04/09/08","18:02:07",24541.000,"cc",28295.154,6.00,6,0.100,16276.000,0.200,3130.000,0.300,1834.000,0.500,2202.000,1.000,1099.000,5.000,0
"04/09/08","18:02:13",24392.000,"cc",28405.162,6.00,6,0.100,16325.000,0.200,2998.000,0.300,1741.000,0.500,2219.000,1.000,1108.000,5.000,1.000
"04/09/08","18:02:19",24130.000,"cc",28291.385,6.00,6,0.100,15992.000,0.200,3061.000,0.300,1706.000,0.500,2254.000,1.000,1117.000,5.000,0
"04/09/08","18:02:25",24575.000,"cc",28295.406,6.00,6,0.100,16165.000,0.200,3174.000,0.300,1831.000,0.500,2213.000,1.000,1192.000,5.000,0
"04/09/08","18:02:31",24647.000,"cc",28184.057,6.00,6,0.100,16346.000,0.200,3086.000,0.300,1788.000,0.500,2262.000,1.000,1165.000,5.000,0
"04/09/08","18:02:37",24551.000,"cc",28388.914,6.00,6,0.100,16232.000,0.200,3215.000,0.300,1767.000,0.500,2188.000,1.000,1148.000,5.000,1.000
"04/09/08","18:02:43",24483.000,"cc",28306.609,6.00,6,0.100,16141.000,0.200,3114.000,0.300,1759.000,0.500,2304.000,1.000,1165.000,5.000,0
"04/09/08","18:02:49",24550.000,"cc",28296.430,6.00,6,0.100,16148.000,0.200,3160.000,0.300,1780.000,0.500,2316.000,1.000,1146.000,5.000,0
"04/09/08","18:02:55",24584.000,"cc",28393.418,6.00,6,0.100,16449.000,0.200,3132.000,0.300,1670.000,0.500,2248.000,1.000,1084.000,5.000,1.000
"04/09/08","18:03:01",24188.000,"cc",28286.678,6.00,6,0.100,16186.000,0.200,3064.000,0.300,1655.000,0.500,2127.000,1.000,1156.000,5.000,0
"04/09/08","18:03:07",24273.000,"cc",28452.029,6.00,6,0.100,16185.000,0.200,3098.000,0.300,1667.000,0.500,2167.000,1.000,1156.000,5.000,0
"04/09/08","18:03:13",24167.000,"cc",28362.133,6.00,6,0.100,16212.000,0.200,3039.000,0.300,1691.000,0.500,2176.000,1.000,1049.000,5.000,0
"04/09/08","18:03:19",24352.000,"cc",28243.949,6.00,6,0.100,16350.000,0.200,2977.000,0.300,1719.000,0.500,2174.000,1.000,1132.000,5.000,0
"04/09/08","18:03:25",24273.000,"cc",28317.973,6.00,6,0.100,16260.000,0.200,3155.000,0.300,1658.000,0.500,2184.000,1.000,1016.000,5.000,0
"04/09/08","18:03:31",24720.000,"cc",28388.221,6.00,6,0.100,16500.000,0.200,3162.000,0.300,1721.000,0.500,2158.000,1.000,1178.000,5.000,1.000
"04/09/08","18:03:37",24790.000,"cc",28210.486,6.00,6,0.100,16497.000,0.200,3176.000,0.300,1765.000,0.500,2154.000,1.000,1198.000,5.000,0
"04/09/08","18:03:43",25076.000,"cc",28291.522,6.00,6,0.100,16629.000,0.200,3149.000,0.300,1814.000,0.500,2293.000,1.000,1191.000,5.000,0
"04/09/08","18:03:49",24457.000,"cc",28220.691,6.00,6,0.100,16241.000,0.200,3127.000,0.300,1760.000,0.500,2232.000,1.000,1097.000,5.000,0
"04/09/08","18:03:55",24130.000,"cc",28369.072,6.00,6,0.100,16280.000,0.200,2898.000,0.300,1717.000,0.500,2058.000,1.000,1175.000,5.000,2.000
"04/09/08","18:04:01",24217.000,"cc",28359.121,6.00,6,0.100,16111.000,0.200,3016.000,0.300,1739.000,0.500,2213.000,1.000,1137.000,5.000,1.000
"04/09/08","18:04:07",24402.000,"cc",28295.898,6.00,6,0.100,16271.000,0.200,3172.000,0.300,1665.000,0.500,2232.000,1.000,1062.000,5.000,0
"04/09/08","18:04:13",24139.000,"cc",28484.207,6.00,6,0.100,16139.000,0.200,3098.000,0.300,1745.000,0.500,2070.000,1.000,1087.000,5.000,0
"04/09/08","18:04:19",23575.000,"cc",28339.940,6.00,6,0.100,15858.000,0.200,2900.000,0.300,1648.000,0.500,2078.000,1.000,1091.000,5.000,0
"04/09/08","18:04:25",23736.000,"cc",28365.691,6.00,6,0.100,15830.000,0.200,3058.000,0.300,1662.000,0.500,2109.000,1.000,1077.000,5.000,0
"04/09/08","18:04:31",24164.000,"cc",28233.041,6.00,6,0.100,16127.000,0.200,3034.000,0.300,1690.000,0.500,2266.000,1.000,1047.000,5.000,0
"04/09/08","18:04:37",24287.000,"cc",28330.971,6.00,6,0.100,16323.000,0.200,3092.000,0.300,1677.000,0.500,2092.000,1.000,1103.000,5.000,0
"04/09/08","18:04:43",23908.000,"cc",28375.582,6.00,6,0.100,16021.000,0.200,2982.000,0.300,1703.000,0.500,2129.000,1.000,1073.000,5.000,0
"04/09/08","18:04:49",24019.000,"cc",28319.156,6.00,6,0.100,15954.000,0.200,3011.000,0.300,1667.000,0.500,2219.000,1.000,1168.000,5.000,0
"04/09/08","18:04:55",23885.000,"cc",28312.225,6.00,6,0.100,15846.000,0.200,3077.000,0.300,1686.000,0.500,2139.000,1.000,1137.000,5.000,0
"04/09/08","18:05:01",24425.000,"cc",28177.758,6.00,6,0.100,16244.000,0.200,3062.000,0.300,1733.000,0.500,2229.000,1.000,1156.000,5.000,1.000
"04/09/08","18:05:07",24206.000,"cc",28400.869,6.00,6,0.100,16122.000,0.200,3062.000,0.300,1690.000,0.500,2202.000,1.000,1130.000,5.000,0
"04/09/08","18:05:13",24200.000,"cc",28310.447,6.00,6,0.100,16236.000,0.200,3047.000,0.300,1645.000,0.500,2142.000,1.000,1130.000,5.000,0
"04/09/08","18:05:19",24112.000,"cc",28287.391,6.00,6,0.100,15942.000,0.200,3084.000,0.300,1685.000,0.500,2244.000,1.000,1157.000,5.000,0
"04/09/08","18:05:25",24045.000,"cc",28302.506,6.00,6,0.100,16093.000,0.200,3019.000,0.300,1697.000,0.500,2116.000,1.000,1120.000,5.000,0
"04/09/08","18:05:31",24169.000,"cc",28336.754,6.00,6,0.100,16117.000,0.200,3043.000,0.300,1678.000,0.500,2211.000,1.000,1120.000,5.000,0
"04/09/08","18:05:37",24025.000,"cc",28258.568,6.00,6,0.100,15936.000,0.200,3137.000,0.300,1690.000,0.500,2139.000,1.000,1123.000,5.000,0
"04/09/08","18:05:43",24479.000,"cc",28298.893,6.00,6,0.100,16171.000,0.200,3087.000,0.300,1814.000,0.500,2241.000,1.000,1166.000,5.000,0
"04/09/08","18:05:49",24080.000,"cc",28399.707,6.00,6,0.100,16047.000,0.200,3072.000,0.300,1684.000,0.500,2135.000,1.000,1142.000,5.000,0
"04/09/08","18:05:55",24273.000,"cc",28274.506,6.00,6,0.100,16033.000,0.200,3158.000,0.300,1701.000,0.500,2244.000,1.000,1137.000,5.000,0
"04/09/08","18:06:01",24479.000,"cc",28335.566,6.00,6,0.100,16227.000,0.200,3064.000,0.300,1772.000,0.500,2271.000,1.000,1145.000,5.000,0
"04/09/08","18:06:07",23876.000,"cc",28452.996,6.00,6,0.100,15911.000,0.200,3043.000,0.300,1641.000,0.500,2187.000,1.000,1092.000,5.000,2.000
"04/09/08","18:06:13",24098.000,"cc",28255.594,6.00,6,0.100,15987.000,0.200,3026.000,0.300,1733.000,0.500,2187.000,1.000,1164.000,5.000,1.000
"04/09/08","18:06:19",24077.000,"cc",28282.969,6.00,6,0.100,15843.000,0.200,3133.000,0.300,1690.000,0.500,2261.000,1.000,1148.000,5.000,2.000
"04/09/08","18:06:25",24800.000,"cc",28267.012,6.00,6,0.100,16441.000,0.200,3133.000,0.300,1800.000,0.500,2272.000,1.000,1153.000,5.000,1.000
"04/09/08","18:06:31",24647.000,"cc",28304.688,6.00,6,0.100,16353.000,0.200,3141.000,0.300,1783.000,0.500,2167.000,1.000,1203.000,5.000,0
"04/09/08","18:06:37",24822.000,"cc",28278.014,6.00,6,0.100,16396.000,0.200,3159.000,0.300,1765.000,0.500,2295.000,1.000,1206.000,5.000,1.000
"04/09/08","18:06:43",24485.000,"cc",28472.494,6.00,6,0.100,16216.000,0.200,3183.000,0.300,1688.000,0.500,2246.000,1.000,1150.000,5.000,2.000
"04/09/08","18:06:49",24154.000,"cc",28232.943,6.00,6,0.100,16286.000,0.200,3014.000,0.300,1706.000,0.500,2108.000,1.000,1040.000,5.000,0
"04/09/08","18:06:55",24382.000,"cc",28275.199,6.00,6,0.100,16297.000,0.200,3045.000,0.300,1658.000,0.500,2262.000,1.000,1120.000,5.000,0
"04/09/08","18:07:01",24401.000,"cc",28307.416,6.00,6,0.100,16246.000,0.200,3130.000,0.300,1679.000,0.500,2193.000,1.000,1153.000,5.000,0
"04/09/08","18:07:07",24929.000,"cc",28201.354,6.00,6,0.100,16695.000,0.200,3116.000,0.300,1723.000,0.500,2242.000,1.000,1151.000,5.000,2.000
"04/09/08","18:07:13",24382.000,"cc",28346.297,6.00,6,0.100,16271.000,0.200,3075.000,0.300,1722.000,0.500,2189.000,1.000,1125.000,5.000,0
"04/09/08","18:07:19",24571.000,"cc",28518.988,6.00,6,0.100,16445.000,0.200,3214.000,0.300,1663.000,0.500,2168.000,1.000,1081.000,5.000,0
"04/09/08","18:07:25",24202.000,"cc",28366.547,6.00,6,0.100,16413.000,0.200,3020.000,0.300,1581.000,0.500,2138.000,1.000,1049.000,5.000,1.000
"04/09/08","18:07:31",24409.000,"cc",28292.387,6.00,6,0.100,16299.000,0.200,3098.000,0.300,1745.000,0.500,2147.000,1.000,1120.000,5.000,0
"04/09/08","18:07:37",24612.000,"cc",28116.865,6.00,6,0.100,16344.000,0.200,3140.000,0.300,1685.000,0.500,2278.000,1.000,1165.000,5.000,0
"04/09/08","18:07:43",24413.000,"cc",28339.752,6.00,6,0.100,16116.000,0.200,3215.000,0.300,1734.000,0.500,2164.000,1.000,1184.000,5.000,0
"04/09/08","18:07:49",24355.000,"cc",28418.887,6.00,6,0.100,16281.000,0.200,3111.000,0.300,1733.000,0.500,2137.000,1.000,1093.000,5.000,0
"04/09/08","18:07:55",24232.000,"cc",28382.129,6.00,6,0.100,16170.000,0.200,3045.000,0.300,1680.000,0.500,2169.000,1.000,1168.000,5.000,0
"04/09/08","18:08:01",24336.000,"cc",28305.711,6.00,6,0.100,16290.000,0.200,3105.000,0.300,1656.000,0.500,2204.000,1.000,1080.000,5.000,1.000
"04/09/08","18:08:07",24572.000,"cc",28289.242,6.00,6,0.100,16319.000,0.200,3132.000,0.300,1730.000,0.500,2277.000,1.000,1113.000,5.000,1.000
"04/09/08","18:08:13",24491.000,"cc",28316.611,6.00,6,0.100,16337.000,0.200,3064.000,0.300,1711.000,0.500,2205.000,1.000,1173.000,5.000,1.000
"04/09/08","18:08:19",24450.000,"cc",28337.695,6.00,6,0.100,16295.000,0.200,3143.000,0.300,1744.000,0.500,2162.000,1.000,1106.000,5.000,0
"04/09/08","18:08:25",24939.000,"cc",28279.219,6.00,6,0.100,16700.000,0.200,3152.000,0.300,1691.000,0.500,2291.000,1.000,1105.000,5.000,0
"04/09/08","18:08:31",24544.000,"cc",28264.586,6.00,6,0.100,16302.000,0.200,3116.000,0.300,1698.000,0.500,2272.000,1.000,1156.000,5.000,0
"04/09/08","18:08:37",24413.000,"cc",28291.844,6.00,6,0.100,16279.000,0.200,3113.000,0.300,1707.000,0.500,2213.000,1.000,1100.000,5.000,1.000
"04/09/08","18:08:43",24671.000,"cc",28326.510,6.00,6,0.100,16399.000,0.200,3222.000,0.300,1780.000,0.500,2174.000,1.000,1096.000,5.000,0
"04/09/08","18:08:49",24681.000,"cc",28288.375,6.00,6,0.100,16308.000,0.200,3116.000,0.300,1815.000,0.500,2253.000,1.000,1188.000,5.000,1.000
"04/09/08","18:08:55",24454.000,"cc",28279.715,6.00,6,0.100,16145.000,0.200,3088.000,0.300,1776.000,0.500,2304.000,1.000,1141.000,5.000,0
"04/09/08","18:09:01",24743.000,"cc",28356.080,6.00,6,0.100,16432.000,0.200,3132.000,0.300,1777.000,0.500,2286.000,1.000,1116.000,5.000,0
"04/09/08","18:09:07",24642.000,"cc",28358.065,6.00,6,0.100,16508.000,0.200,3140.000,0.300,1718.000,0.500,2161.000,1.000,1114.000,5.000,1.000
"04/09/08","18:09:13",24636.000,"cc",28314.643,6.00,6,0.100,16326.000,0.200,3163.000,0.300,1812.000,0.500,2210.000,1.000,1125.000,5.000,0
"04/09/08","18:09:19",24673.000,"cc",28255.928,6.00,6,0.100,16538.000,0.200,3191.000,0.300,1721.000,0.500,2142.000,1.000,1081.000,5.000,0
"04/09/08","18:09:25",24659.000,"cc",28303.014,6.00,6,0.100,16508.000,0.200,3055.000,0.300,1726.000,0.500,2255.000,1.000,1113.000,5.000,2.000
"04/09/08","18:09:31",24611.000,"cc",28389.449,6.00,6,0.100,16361.000,0.200,3132.000,0.300,1748.000,0.500,2238.000,1.000,1131.000,5.000,1.000
"04/09/08","18:09:37",24505.000,"cc",28236.285,6.00,6,0.100,16282.000,0.200,3117.000,0.300,1726.000,0.500,2231.000,1.000,1149.000,5.000,0
"04/09/08","18:09:43",24892.000,"cc",28383.174,6.00,6,0.100,16493.000,0.200,3139.000,0.300,1773.000,0.500,2316.000,1.000,1171.000,5.000,0
"04/09/08","18:09:49",24855.000,"cc",28437.367,6.00,6,0.100,16663.000,0.200,3085.000,0.300,1727.000,0.500,2226.000,1.000,1154.000,5.000,0
"04/09/08","18:09:55",24880.000,"cc",28246.768,6.00,6,0.100,16636.000,0.200,3138.000,0.300,1724.000,0.500,2171.000,1.000,1211.000,5.000,0
"04/09/08","18:10:01",24692.000,"cc",28354.217,6.00,6,0.100,16504.000,0.200,3125.000,0.300,1781.000,0.500,2158.000,1.000,1123.000,5.000,1.000
"04/09/08","18:10:07",24584.000,"cc",28241.928,6.00,6,0.100,16254.000,0.200,3117.000,0.300,1838.000,0.500,2232.000,1.000,1143.000,5.000,0
"04/09/08","18:10:13",25089.000,"cc",28238.897,6.00,6,0.100,16711.000,0.200,3249.000,0.300,1762.000,0.500,2261.000,1.000,1105.000,5.000,1.000
"04/09/08","18:10:19",24675.000,"cc",28287.713,6.00,6,0.100,16470.000,0.200,3154.000,0.300,1721.000,0.500,2220.000,1.000,1110.000,5.000,0
"04/09/08","18:10:25",24887.000,"cc",28242.982,6.00,6,0.100,16546.000,0.200,3143.000,0.300,1761.000,0.500,2283.000,1.000,1154.000,5.000,0
"04/09/08","18:10:31",24893.000,"cc",28335.371,6.00,6,0.100,16445.000,0.200,3178.000,0.300,1759.000,0.500,2348.000,1.000,1163.000,5.000,0
"04/09/08","18:10:37",24927.000,"cc",28179.459,6.00,6,0.100,16451.000,0.200,3159.000,0.300,1844.000,0.500,2336.000,1.000,1137.000,5.000,0
"04/09/08","18:10:43",25086.000,"cc",28471.928,6.00,6,0.100,16495.000,0.200,3231.000,0.300,1806.000,0.500,2363.000,1.000,1190.000,5.000,1.000
"04/09/08","18:10:49",25001.000,"cc",28424.984,6.00,6,0.100,16597.000,0.200,3226.000,0.300,1742.000,0.500,2266.000,1.000,1168.000,5.000,2.000
"04/09/08","18:10:55",25008.000,"cc",28325.721,6.00,6,0.100,16747.000,0.200,3145.000,0.300,1705.000,0.500,2248.000,1.000,1163.000,5.000,0
"04/09/08","18:11:01",25241.000,"cc",28243.406,6.00,6,0.100,16514.000,0.200,3333.000,0.300,1820.000,0.500,2359.000,1.000,1215.000,5.000,0
"04/09/08","18:11:07",25176.000,"cc",28383.777,6.00,6,0.100,16591.000,0.200,3271.000,0.300,1805.000,0.500,2329.000,1.000,1179.000,5.000,1.000
"04/09/08","18:11:13",24696.000,"cc",28202.713,6.00,6,0.100,16498.000,0.200,3197.000,0.300,1675.000,0.500,2153.000,1.000,1173.000,5.000,0
"04/09/08","18:11:19",24940.000,"cc",28287.998,6.00,6,0.100,16378.000,0.200,3256.000,0.300,1835.000,0.500,2296.000,1.000,1174.000,5.000,1.000
"04/09/08","18:11:25",25117.000,"cc",28351.986,6.00,6,0.100,16584.000,0.200,3232.000,0.300,1801.000,0.500,2285.000,1.000,1214.000,5.000,1.000
"04/09/08","18:11:31",24801.000,"cc",28372.889,6.00,6,0.100,16364.000,0.200,3192.000,0.300,1805.000,0.500,2277.000,1.000,1163.000,5.000,0
"04/09/08","18:11:37",24784.000,"cc",28430.049,6.00,6,0.100,16361.000,0.200,3174.000,0.300,1749.000,0.500,2378.000,1.000,1122.000,5.000,0
"04/09/08","18:11:43",24524.000,"cc",28235.057,6.00,6,0.100,16431.000,0.200,3072.000,0.300,1721.000,0.500,2183.000,1.000,1117.000,5.000,0
"04/09/08","18:11:49",24946.000,"cc",28263.484,6.00,6,0.100,16474.000,0.200,3161.000,0.300,1791.000,0.500,2307.000,1.000,1213.000,5.000,0
"04/09/08","18:11:55",25119.000,"cc",28239.723,6.00,6,0.100,16525.000,0.200,3245.000,0.300,1802.000,0.500,2356.000,1.000,1191.000,5.000,0
"04/09/08","18:12:01",23806.000,"cc",28419.565,6.00,6,0.100,16051.000,0.200,3037.000,0.300,1612.000,0.500,2017.000,1.000,1088.000,5.000,1.000
"04/09/08","18:12:07",24030.000,"cc",28226.611,6.00,6,0.100,16179.000,0.200,2965.000,0.300,1679.000,0.500,2062.000,1.000,1145.000,5.000,0
"04/09/08","18:12:13",23833.000,"cc",28334.902,6.00,6,0.100,15852.000,0.200,3055.000,0.300,1668.000,0.500,2169.000,1.000,1089.000,5.000,0
"04/09/08","18:12:19",23727.000,"cc",28415.229,6.00,6,0.100,15966.000,0.200,2993.000,0.300,1622.000,0.500,2104.000,1.000,1042.000,5.000,0
"04/09/08","18:12:25",23944.000,"cc",28387.283,6.00,6,0.100,16071.000,0.200,3100.000,0.300,1612.000,0.500,2095.000,1.000,1065.000,5.000,1.000
"04/09/08","18:12:31",24050.000,"cc",28266.772,6.00,6,0.100,16070.000,0.200,3071.000,0.300,1618.000,0.500,2216.000,1.000,1075.000,5.000,0
"04/09/08","18:12:37",24302.000,"cc",28258.867,6.00,6,0.100,16248.000,0.200,3065.000,0.300,1688.000,0.500,2173.000,1.000,1127.000,5.000,1.000
"04/09/08","18:12:43",24205.000,"cc",28313.719,6.00,6,0.100,16180.000,0.200,3089.000,0.300,1711.000,0.500,2153.000,1.000,1072.000,5.000,0
"04/09/08","18:12:49",24248.000,"cc",28383.803,6.00,6,0.100,16241.000,0.200,3049.000,0.300,1653.000,0.500,2164.000,1.000,1141.000,5.000,0
"04/09/08","18:12:55",24411.000,"cc",28309.449,6.00,6,0.100,16132.000,0.200,3146.000,0.300,1759.000,0.500,2226.000,1.000,1148.000,5.000,0
"04/09/08","18:13:01",24369.000,"cc",28332.693,6.00,6,0.100,16273.000,0.200,3118.000,0.300,1725.000,0.500,2214.000,1.000,1039.000,5.000,0
"04/09/08","18:13:07",24540.000,"cc",28243.217,6.00,6,0.100,16412.000,0.200,3112.000,0.300,1705.000,0.500,2218.000,1.000,1093.000,5.000,0
"04/09/08","18:13:13",24260.000,"cc",28343.877,6.00,6,0.100,16344.000,0.200,3016.000,0.300,1620.000,0.500,2135.000,1.000,1144.000,5.000,1.000
"04/09/08","18:13:19",24285.000,"cc",28288.924,6.00,6,0.100,16298.000,0.200,2992.000,0.300,1653.000,0.500,2235.000,1.000,1106.000,5.000,1.000
"04/09/08","18:13:25",24299.000,"cc",28178.242,6.00,6,0.100,16022.000,0.200,3097.000,0.300,1777.000,0.500,2263.000,1.000,1140.000,5.000,0
"04/09/08","18:13:31",23930.000,"cc",28385.473,6.00,6,0.100,15974.000,0.200,3009.000,0.300,1690.000,0.500,2207.000,1.000,1049.000,5.000,1.000
"04/09/08","18:13:37",23342.000,"cc",28397.486,6.00,6,0.100,15709.000,0.200,2964.000,0.300,1612.000,0.500,2059.000,1.000,998.000,5.000,0
"04/09/08","18:13:43",23843.000,"cc",28277.213,6.00,6,0.100,16055.000,0.200,2891.000,0.300,1692.000,0.500,2079.000,1.000,1126.000,5.000,0
"04/09/08","18:13:49",24165.000,"cc",28388.711,6.00,6,0.100,16066.000,0.200,3112.000,0.300,1730.000,0.500,2171.000,1.000,1086.000,5.000,0
"04/09/08","18:13:55",23587.000,"cc",28395.104,6.00,6,0.100,15705.000,0.200,2992.000,0.300,1652.000,0.500,2144.000,1.000,1094.000,5.000,0
"04/09/08","18:14:01",23421.000,"cc",28258.172,6.00,6,0.100,15604.000,0.200,2994.000,0.300,1638.000,0.500,2093.000,1.000,1092.000,5.000,0
"04/09/08","18:14:07",23993.000,"cc",28371.152,6.00,6,0.100,15950.000,0.200,3067.000,0.300,1672.000,0.500,2183.000,1.000,1121.000,5.000,0
"04/09/08","18:14:13",23977.000,"cc",28279.188,6.00,6,0.100,15964.000,0.200,3059.000,0.300,1727.000,0.500,2139.000,1.000,1087.000,5.000,1.000
"04/09/08","18:14:19",23992.000,"cc",28208.436,6.00,6,0.100,15938.000,0.200,2988.000,0.300,1746.000,0.500,2177.000,1.000,1143.000,5.000,0
"04/09/08","18:14:25",23700.000,"cc",28322.490,6.00,6,0.100,15776.000,0.200,3035.000,0.300,1656.000,0.500,2131.000,1.000,1102.000,5.000,0
"04/09/08","18:14:31",24021.000,"cc",28348.897,6.00,6,0.100,15931.000,0.200,3111.000,0.300,1689.000,0.500,2180.000,1.000,1110.000,5.000,0
"04/09/08","18:14:37",24035.000,"cc",28256.188,6.00,6,0.100,15850.000,0.200,3175.000,0.300,1712.000,0.500,2186.000,1.000,1112.000,5.000,0
"04/09/08","18:14:43",24222.000,"cc",28263.447,6.00,6,0.100,16018.000,0.200,3070.000,0.300,1748.000,0.500,2238.000,1.000,1148.000,5.000,0
"04/09/08","18:14:49",24061.000,"cc",28369.127,6.00,6,0.100,15978.000,0.200,3081.000,0.300,1744.000,0.500,2160.000,1.000,1098.000,5.000,0
"04/09/08","18:14:55",24484.000,"cc",28289.732,6.00,6,0.100,16396.000,0.200,3078.000,0.300,1731.000,0.500,2126.000,1.000,1153.000,5.000,0
"04/09/08","18:15:01",24408.000,"cc",28293.406,6.00,6,0.100,16282.000,0.200,3109.000,0.300,1689.000,0.500,2221.000,1.000,1107.000,5.000,0
"04/09/08","18:15:07",24660.000,"cc",28346.703,6.00,6,0.100,16317.000,0.200,3156.000,0.300,1752.000,0.500,2238.000,1.000,1195.000,5.000,2.000
"04/09/08","18:15:13",24402.000,"cc",28382.705,6.00,6,0.100,16151.000,0.200,3117.000,0.300,1754.000,0.500,2271.000,1.000,1109.000,5.000,0
"04/09/08","18:15:19",24566.000,"cc",28301.895,6.00,6,0.100,16331.000,0.200,3026.000,0.300,1786.000,0.500,2242.000,1.000,1180.000,5.000,1.000
"04/09/08","18:15:25",24476.000,"cc",28326.406,6.00,6,0.100,16419.000,0.200,3065.000,0.300,1706.000,0.500,2203.000,1.000,1083.000,5.000,0
"04/09/08","18:15:31",24712.000,"cc",28296.957,6.00,6,0.100,16435.000,0.200,3163.000,0.300,1727.000,0.500,2245.000,1.000,1141.000,5.000,1.000
"04/09/08","18:15:37",25098.000,"cc",28233.574,6.00,6,0.100,16459.000,0.200,3162.000,0.300,1865.000,0.500,2418.000,1.000,1194.000,5.000,0
"04/09/08","18:15:43",26059.000,"cc",28251.402,6.00,6,0.100,16921.000,0.200,3388.000,0.300,1949.000,0.500,2532.000,1.000,1269.000,5.000,0
"04/09/08","18:15:49",26842.000,"cc",28355.887,6.00,6,0.100,16648.000,0.200,3542.000,0.300,2144.000,0.500,2870.000,1.000,1638.000,5.000,0
"04/09/08","18:15:55",24964.000,"cc",28318.541,6.00,6,0.100,16495.000,0.200,3137.000,0.300,1809.000,0.500,2311.000,1.000,1212.000,5.000,0
"04/09/08","18:16:01",25087.000,"cc",28223.199,6.00,6,0.100,16519.000,0.200,3207.000,0.300,1885.000,0.500,2310.000,1.000,1165.000,5.000,1.000
"04/09/08","18:16:07",25061.000,"cc",28319.500,6.00,6,0.100,16477.000,0.200,3267.000,0.300,1804.000,0.500,2324.000,1.000,1189.000,5.000,0